sat.trackr.live / text

‹ back to catalog

STARLINK-36499

NORAD 67359 · 2026-003AB

PAYLOAD ACTIVE UNKNOWN

§ Identity

Operator
Country
US
Launch date
2026-01-09
Launch site
AFETR
Launch vehicle
Mass (kg)
RCS (m²)

Purposes: comms

External: N2YO · Heavens-Above · Gunter

§ Orbital elements

Epoch: 2026-09-19T22:01:16.675104Z

Period
94.27 min
Inclination
43.0013°
Eccentricity
0.0001386
Mean motion
15.27590741 rev/d
Perigee alt
482.1 km
Apogee alt
484.0 km
Semi-major
6,861.2 km
B*
6.9461e-4
RAAN
210.5958°
Arg perigee
272.2367°
Mean anomaly
87.8325°
Rev number
3,852

§ Raw data

STARLINK-364991 67359U 26003AB  26262.91755411  .00018907  00000+0  69461-3 0  99952 67359  43.0013 210.5958 0001386 272.2367  87.8325 15.27590741 38522

JSON: /api/v1/satellites/67359 · /tle

For live sub-satellite position, see the globe view (requires WebGL).

§ Visibility from observer

Set your observer location to see the next 7 days of passes ≥ 10°. The values pass through the URL so the page stays shareable.

No JS? Fill the form by hand. The geolocation button needs JavaScript.